Weather History for Naples, FL

Change the Weather History Date:

Thursday, November 8, 2012

  Actual Average Record
Temperature  
Mean Temperature 62 °F 74 °F  
Max Temperature 70 °F 83 °F 90 °F (1975)
Min Temperature 54 °F 65 °F 46 °F (1981)
Degree Days  
Heating Degree Days 3 0  
Month to date heating degree days 3 0  
Since 1 July heating degree days 4 1  
Cooling Degree Days 0 9  
Month to date cooling degree days 36 76  
Year to date cooling degree days 3877 3671  
Growing Degree Days 12 (Base 50)    
Moisture  
Dew Point 42 °F    
Average Humidity 55    
Maximum Humidity 80    
Minimum Humidity 30    
Precipitation  
Precipitation 0.00 in 0.06 in 0.78 in (1983)
Month to date precipitation 0.12 0.80  
Year to date precipitation 36.15 49.20  
Snow  
Snow 0.00 in - - ()
Month to date snowfall 0.0  
Since 1 July snowfall 0.0  
Since 1 September snowfall 0.0  
Snow Depth 0.00 in    
Sea Level Pressure  
Sea Level Pressure 30.08 in    
Wind  
Wind Speed 7 mph (NNE)    
Max Wind Speed 17 mph    
Max Gust Speed 25 mph    
Visibility 10 miles    
Events      
T = Trace of Precipitation, MM = Missing Value Source: NWS Daily Summary

Daily Weather History Graph

Daily Weather History Graph

Search for Another Location

Airport:

Trip Planner

Search our weather history database for the weather conditions in past years. The results will help you decide how hot, cold, wet, or windy it might be!

Date:

Astronomy

Nov. 08, 2012 Rise Set
Actual Time 6:40 AM EST 5:40 PM EST
Civil Twilight 6:16 AM EST 6:04 PM EST
Nautical Twilight 5:49 AM EST 6:32 PM EST
Astronomical Twilight 5:21 AM EST 6:59 PM EST
Moon 1:07 AM EST (11/8) 1:51 PM EST (11/8)
Length of Visible Light 11h 47m
Length of Day
10h 59m
Waning Crescent, 33% of the Moon is Illuminated
Nov 8
Waning Crescent
Nov 13
New
Nov 20
First Quarter
Nov 28
Full
Dec 6
Last Quarter

Hourly Weather History & Observations

Time (EST) Temp. Dew Point Humidity Pressure Visibility Wind Dir Wind Speed Gust Speed Precip Events Conditions
12:53 AM 60.1 °F 50.0 °F 69% 29.99 in 10.0 mi NE 4.6 mph - N/A   Overcast
1:53 AM 59.0 °F 51.1 °F 75% 29.99 in 10.0 mi ENE 5.8 mph - N/A   Overcast
2:53 AM 57.0 °F 51.1 °F 81% 29.99 in 10.0 mi East 4.6 mph - N/A   Mostly Cloudy
3:53 AM 57.9 °F 51.1 °F 78% 30.01 in 10.0 mi NNE 4.6 mph - N/A   Overcast
4:53 AM 59.0 °F 48.0 °F 67% 30.03 in 10.0 mi NNE 5.8 mph - N/A   Overcast
5:53 AM 57.9 °F 46.0 °F 65% 30.05 in 10.0 mi NNE 8.1 mph - N/A   Overcast
6:53 AM 57.9 °F 43.0 °F 58% 30.07 in 10.0 mi NNE 8.1 mph - N/A   Overcast
7:53 AM 59.0 °F 42.1 °F 53% 30.09 in 10.0 mi NNE 8.1 mph - N/A   Mostly Cloudy
8:53 AM 61.0 °F 39.9 °F 46% 30.11 in 10.0 mi NNE 11.5 mph - N/A   Clear
9:53 AM 64.0 °F 39.9 °F 41% 30.13 in 10.0 mi NNE 12.7 mph 19.6 mph N/A   Clear
10:53 AM 64.9 °F 39.9 °F 40% 30.13 in 10.0 mi NNE 11.5 mph 19.6 mph N/A   Clear
11:53 AM 66.9 °F 39.0 °F 36% 30.12 in 10.0 mi NNE 10.4 mph 21.9 mph N/A   Clear
12:53 PM 68.0 °F 36.0 °F 31% 30.10 in 10.0 mi North 12.7 mph - N/A   Clear
1:53 PM 68.0 °F 37.0 °F 32% 30.08 in 10.0 mi NNW 6.9 mph 19.6 mph N/A   Clear
2:53 PM 70.0 °F 39.0 °F 32% 30.06 in 10.0 mi NNW 10.4 mph - N/A   Clear
3:53 PM 69.1 °F 37.9 °F 32% 30.06 in 10.0 mi North 12.7 mph - N/A   Clear
4:53 PM 68.0 °F 36.0 °F 31% 30.07 in 10.0 mi North 9.2 mph - N/A   Clear
5:53 PM 64.9 °F 37.0 °F 36% 30.08 in 10.0 mi North 6.9 mph - N/A   Clear
6:53 PM 62.1 °F 39.0 °F 43% 30.09 in 10.0 mi North 3.5 mph - N/A   Clear
7:53 PM 59.0 °F 41.0 °F 51% 30.12 in 10.0 mi NNE 4.6 mph - N/A   Clear
8:53 PM 57.9 °F 42.1 °F 56% 30.14 in 10.0 mi NNE 3.5 mph - N/A   Clear
9:53 PM 55.9 °F 45.0 °F 67% 30.15 in 10.0 mi Calm Calm - N/A   Clear
10:53 PM 55.9 °F 44.1 °F 64% 30.16 in 10.0 mi North 3.5 mph - N/A   Clear
11:53 PM 54.0 °F 44.1 °F 69% 30.16 in 10.0 mi North 4.6 mph - N/A   Clear